| time (UTC) | temp F | wind direction | speed MPH | gust MPH | rain 1hr in | rain 24hr in | rain mn in | humidity % | barometer mb |
| 20260831151816 | 88 | 223 | 10.0 | 15.0 | 0.00 | 0.00 | 0.00 | 55 | 1018.2 |
| 20260831151314 | 88 | 217 | 8.0 | 15.0 | 0.00 | 0.00 | 0.00 | 55 | 1018.1 |
| 20260831150813 | 88 | 215 | 8.0 | 14.0 | 0.00 | 0.00 | 0.00 | 56 | 1018.1 |
| 20260831150315 | 88 | 142 | 2.0 | 13.0 | 0.00 | 0.00 | 0.00 | 58 | 1018.1 |
| 20260831145813 | 88 | 254 | 10.0 | 13.0 | 0.00 | 0.00 | 0.00 | 57 | 1018.1 |
| 20260831145315 | 87 | 246 | 4.0 | 11.0 | 0.00 | 0.00 | 0.00 | 60 | 1018.0 |
| 20260831144814 | 87 | 225 | 5.0 | 11.0 | 0.00 | 0.00 | 0.00 | 60 | 1018.1 |
| 20260831144315 | 87 | 199 | 4.0 | 10.0 | 0.00 | 0.00 | 0.00 | 62 | 1018.1 |
| 20260831143814 | 86 | 190 | 3.0 | 11.0 | 0.00 | 0.00 | 0.00 | 62 | 1018.0 |
| 20260831143316 | 86 | 234 | 4.0 | 11.0 | 0.00 | 0.00 | 0.00 | 63 | 1018.0 |
| 20260831142813 | 85 | 168 | 4.0 | 11.0 | 0.00 | 0.00 | 0.00 | 65 | 1018.2 |
| 20260831142314 | 85 | 194 | 7.0 | 9.0 | 0.00 | 0.00 | 0.00 | 66 | 1018.2 |
| 20260831141815 | 85 | 217 | 3.0 | 10.0 | 0.00 | 0.00 | 0.00 | 67 | 1018.1 |
| 20260831141315 | 85 | 229 | 5.0 | 10.0 | 0.00 | 0.00 | 0.00 | 67 | 1018.1 |
| 20260831140812 | 84 | 194 | 6.0 | 11.0 | 0.00 | 0.00 | 0.00 | 67 | 1018.0 |
| 20260831140315 | 84 | 217 | 5.0 | 11.0 | 0.00 | 0.00 | 0.00 | 67 | 1018.1 |
| 20260831135747 | 84 | 194 | 7.0 | 11.0 | 0.00 | 0.00 | 0.00 | 69 | 1018.2 |
| 20260831135321 | 83 | 183 | 2.0 | 11.0 | 0.00 | 0.00 | 0.00 | 68 | 1017.8 |
| 20260831134759 | 83 | 155 | 7.0 | 10.0 | 0.00 | 0.00 | 0.00 | 69 | 1017.8 |
| 20260831134344 | 83 | 227 | 3.0 | 14.0 | 0.00 | 0.00 | 0.00 | 70 | 1017.7 |
| 20260831133826 | 83 | 225 | 5.0 | 14.0 | 0.00 | 0.00 | 0.00 | 70 | 1017.6 |
| 20260831133316 | 82 | 213 | 7.0 | 13.0 | 0.00 | 0.00 | 0.00 | 70 | 1017.5 |
| 20260831132748 | 82 | 234 | 3.0 | 10.0 | 0.00 | 0.00 | 0.00 | 71 | 1017.4 |
| 20260831132329 | 82 | 203 | 4.0 | 10.0 | 0.00 | 0.00 | 0.00 | 72 | 1017.4 |
| 20260831131815 | 82 | 235 | 4.0 | 10.0 | 0.00 | 0.00 | 0.00 | 72 | 1017.4 |
| 20260831131255 | 81 | 223 | 3.0 | 10.0 | 0.00 | 0.00 | 0.00 | 72 | 1017.3 |
| 20260831130845 | 81 | 225 | 3.0 | 8.0 | 0.00 | 0.00 | 0.00 | 73 | 1017.2 |
| 20260831130333 | 81 | 248 | 2.0 | 8.0 | 0.00 | 0.00 | 0.00 | 73 | 1017.2 |
| 20260831125816 | 80 | 173 | 3.0 | 7.0 | 0.00 | 0.00 | 0.00 | 74 | 1017.1 |
| 20260831125258 | 80 | 182 | 2.0 | 7.0 | 0.00 | 0.00 | 0.00 | 74 | 1017.1 |
| 20260831124749 | 80 | 155 | 3.0 | 7.0 | 0.00 | 0.00 | 0.00 | 74 | 1017.0 |
| 20260831124343 | 80 | 40 | 1.0 | 7.0 | 0.00 | 0.00 | 0.00 | 75 | 1016.8 |
| 20260831123832 | 80 | 175 | 3.0 | 7.0 | 0.00 | 0.00 | 0.00 | 75 | 1016.8 |
| 20260831123324 | 79 | 195 | 2.0 | 7.0 | 0.00 | 0.00 | 0.00 | 75 | 1016.8 |
| 20260831122813 | 79 | 181 | 3.0 | 4.0 | 0.00 | 0.00 | 0.00 | 75 | 1016.7 |
| 20260831122314 | 79 | 187 | 2.0 | 4.0 | 0.00 | 0.00 | 0.00 | 75 | 1016.6 |
| 20260831121806 | 79 | 189 | 2.0 | 4.0 | 0.00 | 0.00 | 0.00 | 75 | 1016.6 |
| 20260831121305 | 79 | 184 | 2.0 | 4.0 | 0.00 | 0.00 | 0.00 | 75 | 1016.4 |
| 20260831120806 | 79 | 185 | 3.0 | 4.0 | 0.00 | 0.00 | 0.00 | 74 | 1016.5 |
| 20260831120313 | 79 | 189 | 1.0 | 4.0 | 0.00 | 0.00 | 0.00 | 74 | 1016.4 |
| 20260831115814 | 80 | 195 | 3.0 | 4.0 | 0.00 | 0.00 | 0.00 | 74 | 1016.4 |
| 20260831115306 | 80 | 192 | 2.0 | 4.0 | 0.00 | 0.00 | 0.00 | 73 | 1016.4 |
| 20260831114807 | 80 | 201 | 2.0 | 3.0 | 0.00 | 0.00 | 0.00 | 73 | 1016.4 |
| 20260831114304 | 80 | 203 | 2.0 | 3.0 | 0.00 | 0.00 | 0.00 | 72 | 1016.4 |
| 20260831113804 | 81 | 204 | 2.0 | 4.0 | 0.00 | 0.00 | 0.00 | 72 | 1016.3 |
| 20260831113304 | 81 | 205 | 1.0 | 4.0 | 0.00 | 0.00 | 0.00 | 71 | 1016.2 |
| 20260831112802 | 81 | 206 | 1.0 | 6.0 | 0.00 | 0.00 | 0.00 | 71 | 1016.1 |
| 20260831112307 | 81 | 207 | 4.0 | 6.0 | 0.00 | 0.00 | 0.00 | 71 | 1016.2 |
| 20260831111805 | 81 | 206 | 2.0 | 6.0 | 0.00 | 0.00 | 0.00 | 70 | 1016.2 |
| 20260831111309 | 81 | 207 | 3.0 | 7.0 | 0.00 | 0.00 | 0.00 | 70 | 1016.1 |
| 20260831110803 | 81 | 209 | 2.0 | 7.0 | 0.00 | 0.00 | 0.00 | 70 | 1015.9 |
| 20260831110305 | 82 | 217 | 3.0 | 7.0 | 0.00 | 0.00 | 0.00 | 70 | 1015.9 |
| 20260831105802 | 82 | 195 | 5.0 | 6.0 | 0.00 | 0.00 | 0.00 | 70 | 1015.9 |
| 20260831105306 | 82 | 192 | 3.0 | 6.0 | 0.00 | 0.00 | 0.00 | 70 | 1015.8 |
| 20260831104804 | 82 | 209 | 2.0 | 6.0 | 0.00 | 0.00 | 0.00 | 69 | 1015.9 |
| 20260831104300 | 82 | 205 | 3.0 | 7.0 | 0.00 | 0.00 | 0.00 | 69 | 1015.8 |
| 20260831103801 | 82 | 197 | 3.0 | 7.0 | 0.00 | 0.00 | 0.00 | 69 | 1016.0 |
| 20260831103259 | 82 | 177 | 5.0 | 8.0 | 0.00 | 0.00 | 0.00 | 69 | 1015.9 |
| 20260831102757 | 82 | 178 | 3.0 | 8.0 | 0.00 | 0.00 | 0.00 | 68 | 1016.0 |
| 20260831102259 | 82 | 189 | 2.0 | 6.0 | 0.00 | 0.00 | 0.00 | 68 | 1016.0 |
| 20260831101758 | 82 | 196 | 2.0 | 5.0 | 0.00 | 0.00 | 0.00 | 68 | 1016.0 |
| 20260831101300 | 83 | 197 | 2.0 | 6.0 | 0.00 | 0.00 | 0.00 | 67 | 1016.0 |
| 20260831100800 | 83 | 205 | 2.0 | 12.0 | 0.00 | 0.00 | 0.00 | 67 | 1015.9 |
| 20260831100305 | 83 | 221 | 6.0 | 12.0 | 0.00 | 0.00 | 0.00 | 68 | 1015.8 |
| 20260831095757 | 82 | 217 | 8.0 | 8.0 | 0.00 | 0.00 | 0.00 | 68 | 1015.8 |
| 20260831095257 | 82 | 193 | 4.0 | 8.0 | 0.00 | 0.00 | 0.00 | 68 | 1015.9 |
| 20260831094758 | 82 | 211 | 2.0 | 4.0 | 0.00 | 0.00 | 0.00 | 68 | 1015.8 |
| 20260831094256 | 82 | 212 | 2.0 | 4.0 | 0.00 | 0.00 | 0.00 | 68 | 1015.8 |
| 20260831093755 | 82 | 212 | 2.0 | 4.0 | 0.00 | 0.00 | 0.00 | 67 | 1015.8 |
| 20260831093255 | 83 | 212 | 2.0 | 3.0 | 0.00 | 0.00 | 0.00 | 66 | 1015.8 |
| 20260831092755 | 83 | 212 | 2.0 | 3.0 | 0.00 | 0.00 | 0.00 | 66 | 1015.7 |
| 20260831092256 | 83 | 212 | 2.0 | 3.0 | 0.00 | 0.00 | 0.00 | 65 | 1015.7 |
| 20260831091756 | 83 | 212 | 2.0 | 4.0 | 0.00 | 0.00 | 0.00 | 65 | 1015.7 |
| 20260831091255 | 84 | 212 | 1.0 | 4.0 | 0.00 | 0.00 | 0.00 | 65 | 1015.6 |
| 20260831090753 | 84 | 213 | 2.0 | 4.0 | 0.00 | 0.00 | 0.00 | 64 | 1015.6 |
| 20260831090256 | 84 | 213 | 2.0 | 4.0 | 0.00 | 0.00 | 0.00 | 64 | 1015.7 |
| 20260831085752 | 84 | 213 | 2.0 | 5.0 | 0.00 | 0.00 | 0.00 | 63 | 1015.6 |
| 20260831085253 | 84 | 213 | 3.0 | 5.0 | 0.00 | 0.00 | 0.00 | 63 | 1015.5 |
| 20260831084752 | 84 | 213 | 4.0 | 6.0 | 0.00 | 0.00 | 0.00 | 63 | 1015.6 |
| 20260831084254 | 85 | 213 | 4.0 | 6.0 | 0.00 | 0.00 | 0.00 | 63 | 1015.6 |
| 20260831083753 | 85 | 218 | 4.0 | 7.0 | 0.00 | 0.00 | 0.00 | 62 | 1015.6 |
| 20260831083252 | 85 | 212 | 2.0 | 8.0 | 0.00 | 0.00 | 0.00 | 62 | 1015.6 |
| 20260831082753 | 85 | 222 | 3.0 | 8.0 | 0.00 | 0.00 | 0.00 | 62 | 1015.5 |
| 20260831082252 | 85 | 240 | 4.0 | 8.0 | 0.00 | 0.00 | 0.00 | 62 | 1015.6 |
| 20260831081751 | 85 | 211 | 3.0 | 8.0 | 0.00 | 0.00 | 0.00 | 61 | 1015.6 |
| 20260831081251 | 85 | 221 | 8.0 | 8.0 | 0.00 | 0.00 | 0.00 | 61 | 1015.7 |
| 20260831080750 | 85 | 219 | 3.0 | 9.0 | 0.00 | 0.00 | 0.00 | 60 | 1015.6 |
| 20260831080249 | 85 | 221 | 4.0 | 9.0 | 0.00 | 0.00 | 0.00 | 60 | 1015.7 |
| 20260831075752 | 85 | 219 | 6.0 | 9.0 | 0.00 | 0.00 | 0.00 | 59 | 1015.6 |
| 20260831075250 | 85 | 227 | 2.0 | 9.0 | 0.00 | 0.00 | 0.00 | 59 | 1015.6 |
| 20260831074750 | 85 | 221 | 4.0 | 11.0 | 0.00 | 0.00 | 0.00 | 58 | 1015.4 |
| 20260831074250 | 85 | 216 | 5.0 | 11.0 | 0.00 | 0.00 | 0.00 | 58 | 1015.5 |
| 20260831073749 | 85 | 228 | 8.0 | 8.0 | 0.00 | 0.00 | 0.00 | 57 | 1015.5 |
| 20260831073248 | 85 | 214 | 5.0 | 9.0 | 0.00 | 0.00 | 0.00 | 57 | 1015.5 |
| 20260831072747 | 85 | 214 | 4.0 | 9.0 | 0.00 | 0.00 | 0.00 | 56 | 1015.4 |
| 20260831072247 | 86 | 214 | 4.0 | 10.0 | 0.00 | 0.00 | 0.00 | 56 | 1015.5 |
| 20260831071747 | 86 | 242 | 5.0 | 10.0 | 0.00 | 0.00 | 0.00 | 55 | 1015.4 |
| 20260831071247 | 86 | 232 | 7.0 | 9.0 | 0.00 | 0.00 | 0.00 | 55 | 1015.4 |
| 20260831070746 | 86 | 183 | 9.0 | 11.0 | 0.00 | 0.00 | 0.00 | 55 | 1015.4 |
| 20260831070247 | 86 | 223 | 5.0 | 11.0 | 0.00 | 0.00 | 0.00 | 55 | 1015.5 |
| 20260831065745 | 86 | 177 | 4.0 | 9.0 | 0.00 | 0.00 | 0.00 | 55 | 1015.5 |
| 20260831065246 | 85 | 175 | 3.0 | 9.0 | 0.00 | 0.00 | 0.00 | 56 | 1015.4 |
| 20260831064746 | 85 | 37 | 3.0 | 9.0 | 0.00 | 0.00 | 0.00 | 57 | 1015.6 |
| 20260831064246 | 85 | 38 | 4.0 | 6.0 | 0.00 | 0.00 | 0.00 | 57 | 1015.5 |
| 20260831063745 | 84 | 32 | 3.0 | 5.0 | 0.00 | 0.00 | 0.00 | 57 | 1015.6 |
| 20260831063143 | 84 | 30 | 3.0 | 4.0 | 0.00 | 0.00 | 0.00 | 58 | 1015.7 |
| 20260831062644 | 84 | 29 | 2.0 | 4.0 | 0.00 | 0.00 | 0.00 | 58 | 1015.6 |
| 20260831062146 | 84 | 29 | 2.0 | 6.0 | 0.00 | 0.00 | 0.00 | 58 | 1015.6 |
| 20260831061644 | 84 | 26 | 2.0 | 6.0 | 0.00 | 0.00 | 0.00 | 58 | 1015.5 |
| 20260831061044 | 84 | 26 | 2.0 | 4.0 | 0.00 | 0.00 | 0.00 | 59 | 1015.5 |
| 20260831060543 | 84 | 25 | 2.0 | 4.0 | 0.00 | 0.00 | 0.00 | 59 | 1015.5 |
| 20260831055945 | 84 | 26 | 2.0 | 4.0 | 0.00 | 0.00 | 0.00 | 60 | 1015.6 |
| 20260831055542 | 84 | 26 | 3.0 | 4.0 | 0.00 | 0.00 | 0.00 | 59 | 1015.7 |
| 20260831055041 | 85 | 27 | 1.0 | 2.0 | 0.00 | 0.00 | 0.00 | 59 | 1015.6 |
| 20260831054542 | 85 | 32 | 1.0 | 3.0 | 0.00 | 0.00 | 0.00 | 58 | 1015.6 |
| 20260831054042 | 85 | 35 | 1.0 | 3.0 | 0.00 | 0.00 | 0.00 | 57 | 1015.6 |
| 20260831053542 | 86 | 0 | 0.0 | 3.0 | 0.00 | 0.00 | 0.00 | 57 | 1015.5 |
| 20260831053042 | 86 | 37 | 2.0 | 3.0 | 0.00 | 0.00 | 0.00 | 57 | 1015.5 |
| 20260831052540 | 86 | 360 | 3.0 | 4.0 | 0.00 | 0.00 | 0.00 | 56 | 1015.4 |
| 20260831052043 | 86 | 36 | 2.0 | 4.0 | 0.00 | 0.00 | 0.00 | 57 | 1015.4 |
| 20260831051540 | 85 | 37 | 2.0 | 4.0 | 0.00 | 0.00 | 0.00 | 57 | 1015.2 |
| 20260831051040 | 85 | 36 | 2.0 | 3.0 | 0.00 | 0.00 | 0.00 | 58 | 1015.3 |
| 20260831050539 | 86 | 37 | 2.0 | 3.0 | 0.00 | 0.00 | 0.00 | 58 | 1015.2 |
| 20260831050042 | 86 | 360 | 2.0 | 3.0 | 0.00 | 0.00 | 0.00 | 58 | 1015.2 |
| 20260831045539 | 86 | 360 | 1.0 | 4.0 | 0.00 | 0.00 | 0.00 | 58 | 1015.2 |
| 20260831045040 | 86 | 38 | 1.0 | 4.0 | 0.00 | 0.00 | 0.00 | 58 | 1015.2 |
| 20260831044538 | 85 | 37 | 1.0 | 4.0 | 0.00 | 0.00 | 0.00 | 58 | 1015.2 |
| 20260831044038 | 85 | 34 | 1.0 | 4.0 | 0.00 | 0.00 | 0.00 | 60 | 1015.2 |
| 20260831043538 | 85 | 31 | 2.0 | 2.0 | 0.00 | 0.00 | 0.00 | 61 | 1015.2 |
| 20260831043038 | 85 | 30 | 1.0 | 2.0 | 0.00 | 0.00 | 0.00 | 60 | 1015.3 |
| 20260831042537 | 85 | 30 | 1.0 | 2.0 | 0.00 | 0.00 | 0.00 | 60 | 1015.1 |
| 20260831042037 | 86 | 31 | 1.0 | 2.0 | 0.00 | 0.00 | 0.00 | 59 | 1015.1 |
| 20260831041538 | 86 | 32 | 1.0 | 2.0 | 0.00 | 0.00 | 0.00 | 58 | 1015.1 |
| 20260831041038 | 86 | 32 | 1.0 | 2.0 | 0.00 | 0.00 | 0.00 | 58 | 1015.1 |
| 20260831040535 | 86 | 32 | 1.0 | 2.0 | 0.00 | 0.00 | 0.00 | 58 | 1015.1 |
| 20260831040037 | 87 | 0 | 0.0 | 3.0 | 0.00 | 0.00 | 0.00 | 57 | 1015.2 |
| 20260831035535 | 87 | 0 | 0.0 | 3.0 | 0.00 | 0.00 | 0.00 | 57 | 1015.1 |
| 20260831035034 | 88 | 30 | 1.0 | 2.0 | 0.00 | 0.00 | 0.00 | 55 | 1015.1 |
| 20260831034535 | 88 | 29 | 1.0 | 3.0 | 0.00 | 0.00 | 0.00 | 55 | 1015.2 |
| 20260831034036 | 88 | 29 | 2.0 | 3.0 | 0.00 | 0.00 | 0.00 | 54 | 1015.0 |
| 20260831033445 | 88 | 28 | 1.0 | 3.0 | 0.00 | 0.00 | 0.00 | 53 | 1015.0 |
| 20260831033034 | 88 | 29 | 1.0 | 3.0 | 0.00 | 0.00 | 0.00 | 53 | 1014.9 |
| 20260831032533 | 89 | 27 | 1.0 | 2.0 | 0.00 | 0.00 | 0.00 | 52 | 1014.9 |
| 20260831032032 | 89 | 146 | 1.0 | 2.0 | 0.00 | 0.00 | 0.00 | 52 | 1014.9 |
| 20260831031531 | 89 | 150 | 1.0 | 2.0 | 0.00 | 0.00 | 0.00 | 51 | 1014.7 |
| 20260831031031 | 89 | 152 | 1.0 | 3.0 | 0.00 | 0.00 | 0.00 | 51 | 1014.8 |
| 20260831030532 | 90 | 152 | 1.0 | 5.0 | 0.00 | 0.00 | 0.00 | 50 | 1014.7 |
| 20260831030032 | 90 | 152 | 2.0 | 5.0 | 0.00 | 0.00 | 0.00 | 50 | 1014.7 |
| 20260831025532 | 90 | 152 | 1.0 | 5.0 | 0.00 | 0.00 | 0.00 | 49 | 1014.7 |
| 20260831025031 | 90 | 152 | 2.0 | 5.0 | 0.00 | 0.00 | 0.00 | 49 | 1014.5 |
| 20260831024530 | 90 | 152 | 2.0 | 3.0 | 0.00 | 0.00 | 0.00 | 49 | 1014.6 |
| 20260831024031 | 90 | 152 | 2.0 | 5.0 | 0.00 | 0.00 | 0.00 | 48 | 1014.4 |
| 20260831023531 | 91 | 151 | 1.0 | 5.0 | 0.00 | 0.00 | 0.00 | 47 | 1014.4 |
| 20260831023034 | 91 | 152 | 2.0 | 6.0 | 0.00 | 0.00 | 0.00 | 47 | 1014.3 |
| 20260831022530 | 91 | 152 | 2.0 | 6.0 | 0.00 | 0.00 | 0.00 | 46 | 1014.4 |
| 20260831022029 | 91 | 151 | 4.0 | 5.0 | 0.00 | 0.00 | 0.00 | 46 | 1014.2 |
| 20260831021529 | 91 | 173 | 1.0 | 4.0 | 0.00 | 0.00 | 0.00 | 46 | 1014.2 |
| 20260831021029 | 91 | 175 | 2.0 | 4.0 | 0.00 | 0.00 | 0.00 | 46 | 1014.1 |
| 20260831020530 | 91 | 36 | 3.0 | 4.0 | 0.00 | 0.00 | 0.00 | 46 | 1014.0 |
| 20260831020030 | 91 | 33 | 1.0 | 3.0 | 0.00 | 0.00 | 0.00 | 46 | 1014.0 |
| 20260831015528 | 91 | 34 | 1.0 | 3.0 | 0.00 | 0.00 | 0.00 | 45 | 1013.9 |
| 20260831015028 | 92 | 34 | 2.0 | 3.0 | 0.00 | 0.00 | 0.00 | 45 | 1013.7 |
| 20260831014529 | 92 | 0 | 0.0 | 3.0 | 0.00 | 0.00 | 0.00 | 44 | 1013.8 |
| 20260831014029 | 93 | 179 | 1.0 | 5.0 | 0.00 | 0.00 | 0.00 | 43 | 1013.7 |
| 20260831013528 | 93 | 179 | 2.0 | 5.0 | 0.00 | 0.00 | 0.00 | 42 | 1013.6 |
| 20260831013027 | 93 | 179 | 2.0 | 6.0 | 0.00 | 0.00 | 0.00 | 42 | 1013.6 |
| 20260831012527 | 94 | 159 | 1.0 | 6.0 | 0.00 | 0.00 | 0.00 | 42 | 1013.6 |
| 20260831012027 | 94 | 150 | 3.0 | 6.0 | 0.00 | 0.00 | 0.00 | 41 | 1013.5 |
| 20260831011527 | 94 | 159 | 2.0 | 6.0 | 0.00 | 0.00 | 0.00 | 41 | 1013.5 |
| 20260831011026 | 94 | 156 | 5.0 | 5.0 | 0.00 | 0.00 | 0.00 | 40 | 1013.4 |
| 20260831010525 | 95 | 169 | 4.0 | 6.0 | 0.00 | 0.00 | 0.00 | 40 | 1013.5 |
| 20260831010026 | 95 | 169 | 2.0 | 6.0 | 0.00 | 0.00 | 0.00 | 40 | 1013.5 |
| 20260831005525 | 95 | 160 | 2.0 | 7.0 | 0.00 | 0.00 | 0.00 | 40 | 1013.3 |
| 20260831005025 | 95 | 138 | 2.0 | 10.0 | 0.00 | 0.00 | 0.00 | 39 | 1013.4 |
| 20260831004524 | 96 | 158 | 5.0 | 12.0 | 0.00 | 0.00 | 0.00 | 39 | 1013.3 |
| 20260831004024 | 96 | 163 | 2.0 | 12.0 | 0.00 | 0.00 | 0.00 | 38 | 1013.3 |
| 20260831003524 | 96 | 176 | 8.0 | 12.0 | 0.00 | 0.00 | 0.00 | 38 | 1013.4 |
| 20260831003024 | 96 | 153 | 4.0 | 10.0 | 0.00 | 0.00 | 0.00 | 38 | 1013.3 |
| 20260831002522 | 97 | 153 | 3.0 | 10.0 | 0.00 | 0.00 | 0.00 | 38 | 1013.3 |
| 20260831002024 | 97 | 153 | 5.0 | 11.0 | 0.00 | 0.00 | 0.00 | 37 | 1013.3 |
| 20260831001524 | 97 | 213 | 4.0 | 11.0 | 0.00 | 0.00 | 0.00 | 38 | 1013.5 |
| 20260831001023 | 97 | 145 | 6.0 | 10.0 | 0.00 | 0.00 | 0.00 | 37 | 1013.4 |
| 20260831000522 | 97 | 148 | 9.0 | 11.0 | 0.00 | 0.00 | 0.00 | 37 | 1013.4 |
| 20260831000023 | 97 | 129 | 4.0 | 11.0 | 0.00 | 0.00 | 0.00 | 36 | 1013.4 |
| 20260830235524 | 98 | 159 | 6.0 | 10.0 | 0.00 | 0.00 | 0.00 | 36 | 1013.5 |
| 20260830235020 | 98 | 197 | 4.0 | 11.0 | 0.00 | 0.00 | 0.00 | 36 | 1013.5 |
| 20260830234520 | 98 | 202 | 6.0 | 11.0 | 0.00 | 0.00 | 0.00 | 36 | 1013.5 |
| 20260830234021 | 98 | 157 | 5.0 | 15.0 | 0.00 | 0.00 | 0.00 | 35 | 1013.5 |
| 20260830233520 | 98 | 157 | 5.0 | 15.0 | 0.00 | 0.00 | 0.00 | 36 | 1013.6 |
| 20260830233020 | 98 | 167 | 6.0 | 14.0 | 0.00 | 0.00 | 0.00 | 35 | 1013.6 |
| 20260830232518 | 98 | 173 | 7.0 | 12.0 | 0.00 | 0.00 | 0.00 | 35 | 1013.6 |
| 20260830232019 | 98 | 133 | 9.0 | 15.0 | 0.00 | 0.00 | 0.00 | 35 | 1013.4 |
| 20260830231520 | 98 | 162 | 7.0 | 15.0 | 0.00 | 0.00 | 0.00 | 35 | 1013.4 |
| 20260830231018 | 99 | 157 | 5.0 | 13.0 | 0.00 | 0.00 | 0.00 | 35 | 1013.4 |
| 20260830230520 | 99 | 122 | 3.0 | 16.0 | 0.00 | 0.00 | 0.00 | 35 | 1013.5 |
| 20260830230021 | 99 | 186 | 12.0 | 16.0 | 0.00 | 0.00 | 0.00 | 34 | 1013.6 |
| 20260830225517 | 99 | 150 | 6.0 | 14.0 | 0.00 | 0.00 | 0.00 | 34 | 1013.7 |
| 20260830225017 | 99 | 131 | 5.0 | 14.0 | 0.00 | 0.00 | 0.00 | 33 | 1013.7 |
| 20260830224517 | 99 | 205 | 7.0 | 14.0 | 0.00 | 0.00 | 0.00 | 34 | 1013.7 |
| 20260830224016 | 99 | 199 | 10.0 | 9.0 | 0.00 | 0.00 | 0.00 | 34 | 1013.9 |
| 20260830223516 | 99 | 237 | 4.0 | 16.0 | 0.00 | 0.00 | 0.00 | 34 | 1013.7 |
| 20260830223016 | 99 | 148 | 4.0 | 16.0 | 0.00 | 0.00 | 0.00 | 34 | 1013.7 |
| 20260830222516 | 99 | 144 | 9.0 | 16.0 | 0.00 | 0.00 | 0.00 | 35 | 1013.8 |
| 20260830222017 | 99 | 154 | 13.0 | 16.0 | 0.00 | 0.00 | 0.00 | 34 | 1013.7 |
| 20260830221516 | 99 | 221 | 9.0 | 14.0 | 0.00 | 0.00 | 0.00 | 35 | 1013.7 |
| 20260830221015 | 99 | 151 | 9.0 | 14.0 | 0.00 | 0.00 | 0.00 | 34 | 1013.7 |
| 20260830220514 | 99 | 194 | 5.0 | 17.0 | 0.00 | 0.00 | 0.00 | 35 | 1013.7 |
| 20260830220016 | 99 | 174 | 7.0 | 17.0 | 0.00 | 0.00 | 0.00 | 36 | 1013.7 |
| 20260830215515 | 99 | 193 | 7.0 | 15.0 | 0.00 | 0.00 | 0.00 | 35 | 1013.8 |
| 20260830215012 | 99 | 196 | 6.0 | 16.0 | 0.00 | 0.00 | 0.00 | 34 | 1013.8 |
| 20260830214513 | 99 | 204 | 7.0 | 16.0 | 0.00 | 0.00 | 0.00 | 35 | 1013.9 |
| 20260830214014 | 99 | 217 | 7.0 | 17.0 | 0.00 | 0.00 | 0.00 | 34 | 1013.9 |
| 20260830213514 | 99 | 206 | 8.0 | 17.0 | 0.00 | 0.00 | 0.00 | 34 | 1013.9 |
| 20260830213011 | 99 | 168 | 7.0 | 16.0 | 0.00 | 0.00 | 0.00 | 34 | 1013.8 |
| 20260830212514 | 99 | 189 | 5.0 | 17.0 | 0.00 | 0.00 | 0.00 | 35 | 1013.9 |
| 20260830212012 | 99 | 137 | 4.0 | 17.0 | 0.00 | 0.00 | 0.00 | 35 | 1014.0 |
| 20260830211513 | 99 | 188 | 6.0 | 14.0 | 0.00 | 0.00 | 0.00 | 35 | 1014.0 |
| 20260830211014 | 99 | 123 | 5.0 | 14.0 | 0.00 | 0.00 | 0.00 | 36 | 1014.2 |
| 20260830210515 | 98 | 225 | 6.0 | 21.0 | 0.00 | 0.00 | 0.00 | 37 | 1014.2 |
| 20260830210015 | 99 | 133 | 7.0 | 21.0 | 0.00 | 0.00 | 0.00 | 36 | 1014.3 |
| 20260830205512 | 99 | 143 | 9.0 | 16.0 | 0.00 | 0.00 | 0.00 | 37 | 1014.3 |
| 20260830205015 | 99 | 224 | 10.0 | 13.0 | 0.00 | 0.00 | 0.00 | 36 | 1014.4 |
| 20260830204511 | 99 | 140 | 5.0 | 16.0 | 0.00 | 0.00 | 0.00 | 36 | 1014.5 |
| 20260830204012 | 99 | 174 | 6.0 | 16.0 | 0.00 | 0.00 | 0.00 | 35 | 1014.6 |
| 20260830203511 | 99 | 243 | 12.0 | 15.0 | 0.00 | 0.00 | 0.00 | 37 | 1014.6 |
| 20260830203013 | 99 | 144 | 3.0 | 15.0 | 0.00 | 0.00 | 0.00 | 36 | 1014.7 |
| 20260830202514 | 99 | 146 | 5.0 | 12.0 | 0.00 | 0.00 | 0.00 | 38 | 1014.7 |
| 20260830202015 | 99 | 173 | 3.0 | 22.0 | 0.00 | 0.00 | 0.00 | 37 | 1014.7 |
| 20260830201512 | 98 | 177 | 6.0 | 22.0 | 0.00 | 0.00 | 0.00 | 37 | 1014.8 |
| 20260830201013 | 99 | 178 | 5.0 | 14.0 | 0.00 | 0.00 | 0.00 | 37 | 1014.9 |
| 20260830200512 | 99 | 212 | 5.0 | 14.0 | 0.00 | 0.00 | 0.00 | 38 | 1015.0 |
| 20260830200015 | 99 | 186 | 6.0 | 13.0 | 0.00 | 0.00 | 0.00 | 38 | 1015.0 |
| 20260830195512 | 99 | 184 | 3.0 | 15.0 | 0.00 | 0.00 | 0.00 | 39 | 1015.0 |
| 20260830195014 | 98 | 242 | 3.0 | 15.0 | 0.00 | 0.00 | 0.00 | 37 | 1015.1 |
| 20260830194513 | 98 | 204 | 10.0 | 16.0 | 0.00 | 0.00 | 0.00 | 38 | 1015.1 |
| 20260830194015 | 98 | 234 | 11.0 | 16.0 | 0.00 | 0.00 | 0.00 | 38 | 1015.2 |
| 20260830193514 | 98 | 161 | 8.0 | 15.0 | 0.00 | 0.00 | 0.00 | 38 | 1015.2 |
| 20260830193014 | 98 | 139 | 9.0 | 14.0 | 0.00 | 0.00 | 0.00 | 38 | 1015.2 |
| 20260830192515 | 98 | 214 | 8.0 | 14.0 | 0.00 | 0.00 | 0.00 | 38 | 1015.4 |
| 20260830192013 | 97 | 203 | 8.0 | 14.0 | 0.00 | 0.00 | 0.00 | 39 | 1015.5 |
| 20260830191513 | 97 | 159 | 7.0 | 14.0 | 0.00 | 0.00 | 0.00 | 39 | 1015.5 |
| 20260830191014 | 98 | 175 | 8.0 | 14.0 | 0.00 | 0.00 | 0.00 | 39 | 1015.6 |
| 20260830190513 | 97 | 224 | 4.0 | 14.0 | 0.00 | 0.00 | 0.00 | 40 | 1015.7 |
| 20260830190015 | 97 | 164 | 11.0 | 15.0 | 0.00 | 0.00 | 0.00 | 41 | 1015.7 |
| 20260830185515 | 97 | 177 | 6.0 | 15.0 | 0.00 | 0.00 | 0.00 | 39 | 1015.8 |
| 20260830185012 | 97 | 224 | 6.0 | 17.0 | 0.00 | 0.00 | 0.00 | 39 | 1015.9 |
| 20260830184511 | 97 | 142 | 6.0 | 17.0 | 0.00 | 0.00 | 0.00 | 40 | 1016.1 |
| 20260830184015 | 97 | 190 | 7.0 | 11.0 | 0.00 | 0.00 | 0.00 | 40 | 1016.1 |
| 20260830183513 | 97 | 190 | 3.0 | 17.0 | 0.00 | 0.00 | 0.00 | 40 | 1016.1 |
| 20260830183011 | 97 | 149 | 8.0 | 17.0 | 0.00 | 0.00 | 0.00 | 41 | 1016.2 |
| 20260830182513 | 96 | 207 | 16.0 | 16.0 | 0.00 | 0.00 | 0.00 | 41 | 1016.2 |
| 20260830182013 | 96 | 200 | 11.0 | 16.0 | 0.00 | 0.00 | 0.00 | 41 | 1016.4 |
| 20260830181514 | 97 | 145 | 8.0 | 16.0 | 0.00 | 0.00 | 0.00 | 41 | 1016.4 |
| 20260830181010 | 97 | 182 | 8.0 | 16.0 | 0.00 | 0.00 | 0.00 | 42 | 1016.5 |
| 20260830180513 | 97 | 211 | 11.0 | 16.0 | 0.00 | 0.00 | 0.00 | 43 | 1016.6 |
| 20260830180011 | 96 | 167 | 6.0 | 16.0 | 0.00 | 0.00 | 0.00 | 42 | 1016.6 |
| 20260830175513 | 96 | 178 | 7.0 | 15.0 | 0.00 | 0.00 | 0.00 | 44 | 1016.6 |
| 20260830175012 | 96 | 178 | 4.0 | 15.0 | 0.00 | 0.00 | 0.00 | 45 | 1016.8 |
| 20260830174514 | 96 | 159 | 7.0 | 14.0 | 0.00 | 0.00 | 0.00 | 45 | 1016.9 |
| 20260830174012 | 95 | 122 | 7.0 | 18.0 | 0.00 | 0.00 | 0.00 | 45 | 1016.8 |
| 20260830173514 | 95 | 146 | 8.0 | 18.0 | 0.00 | 0.00 | 0.00 | 45 | 1016.9 |
| 20260830173010 | 96 | 197 | 7.0 | 17.0 | 0.00 | 0.00 | 0.00 | 45 | 1017.1 |
| 20260830172515 | 95 | 227 | 5.0 | 15.0 | 0.00 | 0.00 | 0.00 | 46 | 1017.0 |
| 20260830172044 | 95 | 214 | 12.0 | 15.0 | 0.00 | 0.00 | 0.00 | 46 | 1017.1 |
| 20260830171541 | 95 | 242 | 5.0 | 14.0 | 0.00 | 0.00 | 0.00 | 46 | 1017.1 |
| 20260830171042 | 95 | 241 | 8.0 | 14.0 | 0.00 | 0.00 | 0.00 | 47 | 1017.2 |
| 20260830170540 | 95 | 223 | 4.0 | 14.0 | 0.00 | 0.00 | 0.00 | 47 | 1017.2 |
| 20260830170042 | 94 | 208 | 8.0 | 14.0 | 0.00 | 0.00 | 0.00 | 48 | 1017.3 |
| 20260830165538 | 94 | 219 | 4.0 | 13.0 | 0.00 | 0.00 | 0.00 | 48 | 1017.4 |
| 20260830165041 | 94 | 185 | 8.0 | 17.0 | 0.00 | 0.00 | 0.00 | 49 | 1017.5 |
| 20260830164540 | 94 | 140 | 5.0 | 17.0 | 0.00 | 0.00 | 0.00 | 49 | 1017.4 |
| 20260830164041 | 94 | 223 | 13.0 | 14.0 | 0.00 | 0.00 | 0.00 | 51 | 1017.5 |
| 20260830163538 | 93 | 219 | 8.0 | 14.0 | 0.00 | 0.00 | 0.00 | 50 | 1017.5 |
| 20260830163039 | 93 | 220 | 9.0 | 12.0 | 0.00 | 0.00 | 0.00 | 50 | 1017.6 |
| 20260830162538 | 93 | 234 | 10.0 | 10.0 | 0.00 | 0.00 | 0.00 | 52 | 1017.7 |
| 20260830162038 | 93 | 213 | 9.0 | 15.0 | 0.00 | 0.00 | 0.00 | 52 | 1017.6 |
| 20260830161536 | 93 | 220 | 3.0 | 15.0 | 0.00 | 0.00 | 0.00 | 52 | 1017.7 |
| 20260830161036 | 92 | 201 | 6.0 | 15.0 | 0.00 | 0.00 | 0.00 | 53 | 1017.7 |
| 20260830160536 | 92 | 232 | 8.0 | 15.0 | 0.00 | 0.00 | 0.00 | 53 | 1017.7 |
| 20260830160037 | 92 | 236 | 10.0 | 16.0 | 0.00 | 0.00 | 0.00 | 53 | 1017.7 |
| 20260830155539 | 92 | 233 | 6.0 | 16.0 | 0.00 | 0.00 | 0.00 | 55 | 1017.7 |
| 20260830155036 | 91 | 212 | 2.0 | 14.0 | 0.00 | 0.00 | 0.00 | 56 | 1017.7 |
| 20260830154535 | 91 | 240 | 11.0 | 14.0 | 0.00 | 0.00 | 0.00 | 57 | 1017.7 |
| 20260830154035 | 91 | 230 | 6.0 | 14.0 | 0.00 | 0.00 | 0.00 | 57 | 1017.8 |
| 20260830153534 | 90 | 209 | 6.0 | 14.0 | 0.00 | 0.00 | 0.00 | 57 | 1017.6 |
| 20260830153034 | 90 | 217 | 3.0 | 12.0 | 0.00 | 0.00 | 0.00 | 58 | 1017.6 |
| 20260830152533 | 90 | 182 | 7.0 | 13.0 | 0.00 | 0.00 | 0.00 | 58 | 1017.6 |
| 20260830152033 | 90 | 215 | 4.0 | 14.0 | 0.00 | 0.00 | 0.00 | 58 | 1017.6 |